CDT,Max TemperatureF,Mean TemperatureF,Min TemperatureF,Max Dew PointF,MeanDew PointF,Min DewpointF,Max Humidity, Mean Humidity, Min Humidity, Max Sea Level PressureIn, Mean Sea Level PressureIn, Min Sea Level PressureIn, Max VisibilityMiles, Mean VisibilityMiles, Min VisibilityMiles, Max Wind SpeedMPH, Mean Wind SpeedMPH, Max Gust SpeedMPH,PrecipitationIn, CloudCover, Events, WindDirDegrees
2013-8-1,87,73,59,67,62,59,100,70,40,30.11,30.07,29.96,10,5,0,8,3,12,0.00,0,Fog,253
2013-8-2,84,75,66,70,66,62,97,78,58,29.98,29.94,29.90,10,9,2,13,6,17,0.00,1,,197
2013-8-3,84,72,60,68,62,57,93,70,46,30.18,30.07,29.99,10,10,5,12,6,15,0.00,1,,27
2013-8-4,82,69,56,63,59,55,100,76,51,30.21,30.15,30.09,10,10,10,12,5,16,0.00,2,,102
2013-8-5,86,75,64,71,67,61,93,77,61,30.07,29.96,29.84,10,10,4,13,6,17,0.00,5,,185
2013-8-6,90,78,66,74,71,66,100,76,52,29.93,29.87,29.82,10,5,0,14,5,17,0.00,3,Fog,182
2013-8-7,90,77,64,74,70,63,100,76,52,29.99,29.87,29.80,10,7,0,15,6,20,0.00,2,Fog,322
2013-8-8,80,68,56,66,63,57,100,79,58,30.03,30.00,29.96,10,10,3,13,5,16,0.00,0,,34
2013-8-9,81,72,63,69,65,62,93,76,58,30.12,30.05,30.01,10,10,9,7,2,10,0.00,2,,23
2013-8-10,84,72,59,63,57,54,90,64,37,30.22,30.16,30.13,10,10,10,13,5,15,0.00,1,,36
2013-8-11,89,73,56,62,58,55,100,68,36,30.16,30.11,30.04,10,10,10,12,5,17,0.00,0,,179
2013-8-12,78,69,59,69,64,60,100,85,69,30.06,30.02,29.98,10,7,0,6,3,7,T,1,Fog-Rain,321
2013-8-13,82,69,56,59,56,54,90,65,39,30.18,30.10,30.04,10,10,10,16,7,20,0.00,0,,20
2013-8-14,77,61,45,54,49,46,100,68,36,30.25,30.20,30.15,10,7,0,10,3,15,0.00,0,Fog,81
2013-8-15,74,64,54,54,52,48,93,69,44,30.19,30.15,30.11,10,10,10,9,3,12,T,4,Rain,119
2013-8-16,80,65,50,56,53,50,100,70,39,30.20,30.18,30.14,10,10,5,14,5,18,0.00,1,,68
2013-8-17,83,67,51,57,53,50,100,68,36,30.23,30.19,30.14,10,9,4,10,4,17,0.00,0,,90
2013-8-18,85,68,50,61,55,50,100,69,37,30.22,30.16,30.11,10,8,2,10,2,16,0.00,1,,159
2013-8-19,87,71,55,64,58,54,100,70,40,30.14,30.11,30.04,10,5,0,13,4,18,0.00,0,Fog,198
2013-8-20,92,76,59,65,62,59,97,68,38,30.10,30.05,30.01,10,9,3,16,7,20,0.00,2,,193
2013-8-21,88,76,65,65,64,62,93,70,46,30.09,30.06,30.03,10,10,8,13,7,18,0.00,0,,206
2013-8-22,87,80,68,70,68,65,93,71,48,30.14,30.09,30.06,10,8,2,10,4,,0.00,0,,148
2013-8-23,91,80,68,71,68,66,100,72,44,30.14,30.10,30.05,10,5,0,12,6,16,0.00,2,Fog,89
2013-8-24,94,81,68,71,67,64,93,67,41,30.19,30.15,30.11,10,9,5,16,7,21,0.00,1,,158
2013-8-25,95,80,64,69,63,56,93,61,28,30.25,30.19,30.14,10,9,5,15,7,22,0.00,0,,190
2013-8-26,97,83,68,71,67,63,87,60,33,30.18,30.11,30.04,10,10,6,15,7,20,0.00,0,,216
2013-8-27,97,85,72,70,66,61,93,62,31,30.06,30.01,29.95,10,10,9,18,8,24,0.00,0,,225
2013-8-28,98,84,70,67,64,62,79,56,33,30.03,30.00,29.98,10,10,10,13,6,18,0.00,0,,244
2013-8-29,97,82,67,71,67,64,93,65,36,30.07,30.01,29.96,10,10,10,13,3,16,0.00,1,,219
2013-8-30,102,88,74,71,68,62,93,60,27,29.96,29.89,29.81,10,10,10,14,7,21,0.00,0,,228
2013-8-31,96,81,66,74,69,65,90,65,39,29.83,29.80,29.77,10,10,10,10,5,17,0.00,0,,277